Regional Weather Roundup
Issued by NWS

Home | Current Version | Previous Version | Text Only | Print | Product List | Glossary On
Versions: 1 2 3 4 5 6 7 8 9 10 11 12 13 14 15 16 17 18 19 20 21 22 23 24 25 26 27 28 29 30 31 32 33 34 35 36 37 38 39 40 41 42 43 44 45 46 47 48 49
000
ASUS45 KREV 272310
RWRNV
NEVADA REGIONAL WEATHER ROUNDUP
NATIONAL WEATHER SERVICE RENO NV
300 PM PST TUE JAN 27 2015

NOTE: "FAIR" INDICATES FEW OR NO CLOUDS BELOW 12,000 FEET WITH NO
SIGNIFICANT WEATHER AND/OR OBSTRUCTIONS TO VISIBILITY.

NVZ001-003-004-280000-
WESTERN NEVADA

CITY           SKY/WX    TMP DP  RH WIND       PRES   REMARKS
RENO           CLOUDY    51  31  46 NW8       30.19R
CARSON CITY    PTSUNNY   46  34  61 S7G18     30.21F
SLIDE MTN        N/A     28  27  93 NW7         N/A
FALLON         LGT RAIN  48  42  80 S7        30.19R
LOVELOCK       LGT RAIN  46  32  58 SW10      30.17R
HAWTHORNE      PTSUNNY   50  37  62 NW7       30.21R
$$

NVZ002-CAZ072-073-280000-
NORTHERN AND CENTRAL SIERRA

CITY           SKY/WX    TMP DP  RH WIND       PRES   REMARKS
S. LAKE TAHOE  CLOUDY    39  33  79 S3        30.25S
TRUCKEE        CLOUDY    39  32  75 W6        30.25R
SQUAW VLY 8000   N/A     32  28  86 CALM        N/A
SUSANVILLE     MOSUNNY   50  32  50 NW14      30.19R
BLUE CANYON    CLOUDY    44  29  55 S3        30.27R
MAMMOTH LAKES  PTSUNNY   41  34  75 SE3       30.22S
BRIDGEPORT     PTSUNNY   41  30  65 E6        30.20R
$$

NVZ030-031-036-280000-
NORTHERN NEVADA

CITY           SKY/WX    TMP DP  RH WIND       PRES   REMARKS
ELKO           LGT RAIN  44  41  89 W9        30.11R
WINNEMUCCA     LGT RAIN  41  38  89 VRB5      30.15R FOG
WENDOVER       PTSUNNY   45  34  65 NE3       30.14F
$$

NVZ035-037-280000-
CENTRAL NEVADA

CITY           SKY/WX    TMP DP  RH WIND       PRES   REMARKS
ELY            LGT RAIN  43  36  76 SE18      30.19R
EUREKA           N/A     49  34  56 S15       30.12R
$$

NVZ013-014-280000-
SOUTH CENTRAL NEVADA

CITY           SKY/WX    TMP DP  RH WIND       PRES   REMARKS
TONOPAH        MOSUNNY   50  37  61 SW12      30.18F
$$

NVZ017-020-022-280000-
SOUTHERN NEVADA

CITY           SKY/WX    TMP DP  RH WIND       PRES   REMARKS
LAS VEGAS      PTSUNNY   61  48  62 E6        30.15F
N. LAS VEGAS   SUNNY     60  47  61 SE8       30.19S
NELLIS AFB     MOSUNNY   61  48  61 VRB3      30.19R
HENDERSON      MOSUNNY   61  50  67 NE7       30.21S
MERCURY        CLOUDY    55  46  71 SW10      30.18S
$$


USA.gov is the U.S. government's official web portal to all federal, state and local government web resources and services.